Retour au catalogue

STARLINK-37464

ActifCommunicationsVLEO
NORAD 69266·PAYLOAD·🇺🇸 United States

Lancé May 29, 2026 depuis Cape Canaveral Space Force Station

Loading…

Prochains Passages (prochaines 24 heures)

TLE

FraisSource: CelesTrak SupGP

Époque: Sep 15, 2026, 04:08 UTC

1 69266C 26117AE  26258.17270833 -.00013219  00000+0 -39063-3 0  2589
2 69266  53.1579 178.2607 0001308  87.6628 294.6862 15.34390614    15

Suivez STARLINK-37464 en temps réel avec AllMySat

Download on the App Store